Overview Statistics Trail Chart Weather Telemetry Raw packets
 

This is the latest recevied weather packets stored in our database for station/object DG3NAD-21. If no packets are shown the sender has not sent any weather packets the latest 10 day(s).

<< 33 34 35 36 37 38 39 >>
Time Temp. Humidity Pressure Rain* Wind** Luminosity Snow
1787829076 26.67° C 46% 1017.7 hPa - - - -
1787828175 26.11° C 47% 1017.9 hPa - - - -
1787827275 26.11° C 47% 1018 hPa - - - -
1787826375 25.56° C 49% 1018 hPa - - - -
1787825474 25.56° C 50% 1018.2 hPa - - - -
1787824574 25° C 50% 1018.3 hPa - - - -
1787823673 25.56° C 49% 1018.7 hPa - - - -
1787822773 25° C 50% 1018.7 hPa - - - -
1787821873 25° C 49% 1018.8 hPa - - - -
1787820973 25° C 50% 1018.8 hPa - - - -
1787820073 24.44° C 50% 1018.9 hPa - - - -
1787819173 24.44° C 50% 1019.3 hPa - - - -
1787818272 24.44° C 50% 1019.1 hPa - - - -
1787817371 24.44° C 50% 1019 hPa - - - -
1787816471 23.89° C 50% 1019 hPa - - - -
1787815570 23.89° C 51% 1018.8 hPa - - - -
1787814670 23.33° C 51% 1018.9 hPa - - - -
1787813770 23.33° C 52% 1018.9 hPa - - - -
1787812869 22.78° C 52% 1019.1 hPa - - - -
1787811969 22.22° C 53% 1019 hPa - - - -
1787811069 21.67° C 53% 1018.7 hPa - - - -
1787810169 21.67° C 54% 1018.6 hPa - - - -
1787809269 21.67° C 55% 1018.8 hPa - - - -
1787808369 21.11° C 55% 1018.8 hPa - - - -
1787807469 21.11° C 54% 1019 hPa - - - -

* Rain since midnight (hover to see other rain measurements)
** Current wind speed in m/s (hover to see current wind gust speed)